Time,TemperatureF,DewpointF,PressureIn,WindDirection,WindDirectionDegrees,WindSpeedMPH,WindSpeedGustMPH,Humidity,HourlyPrecipIn,Conditions,Clouds,dailyrainin,SoftwareType,DateUTC
2013-04-16 00:00:00,19.0,-99.9,-100.00,South,188,3.0,9.0,-999,-99.99,,,-99.99,,2013-04-16 06:00:00,
2013-04-16 00:32:00,19.0,-99.9,-100.00,South,188,3.0,9.0,-999,-99.99,,,-99.99,,2013-04-16 06:32:00,
2013-04-16 00:42:00,19.0,-99.9,-100.00,South,188,3.0,9.0,-999,-99.99,,,-99.99,,2013-04-16 06:42:00,
2013-04-16 00:52:00,19.0,-99.9,-100.00,South,188,3.0,9.0,-999,-99.99,,,-99.99,,2013-04-16 06:52:00,
2013-04-16 01:00:00,18.0,-99.9,-100.00,SE,125,2.0,5.0,-999,-99.99,,,-99.99,,2013-04-16 07:00:00,
2013-04-16 01:32:00,18.0,-99.9,-100.00,SE,125,2.0,5.0,-999,-99.99,,,-99.99,,2013-04-16 07:32:00,
2013-04-16 01:42:00,18.0,-99.9,-100.00,SE,125,2.0,5.0,-999,-99.99,,,-99.99,,2013-04-16 07:42:00,
2013-04-16 01:53:00,18.0,-99.9,-100.00,SE,125,2.0,5.0,-999,-99.99,,,-99.99,,2013-04-16 07:53:00,
2013-04-16 02:00:00,18.0,-99.9,-100.00,SSE,154,3.0,7.0,-999,-99.99,,,-99.99,,2013-04-16 08:00:00,
2013-04-16 02:32:00,18.0,-99.9,-100.00,SSE,154,3.0,7.0,-999,-99.99,,,-99.99,,2013-04-16 08:32:00,
2013-04-16 02:42:00,18.0,-99.9,-100.00,SSE,154,3.0,7.0,-999,-99.99,,,-99.99,,2013-04-16 08:42:00,
2013-04-16 02:52:00,18.0,-99.9,-100.00,SSE,154,3.0,7.0,-999,-99.99,,,-99.99,,2013-04-16 08:52:00,
2013-04-16 03:00:00,18.0,-99.9,-100.00,SSE,153,3.0,7.0,-999,-99.99,,,-99.99,,2013-04-16 09:00:00,
2013-04-16 03:33:00,18.0,-99.9,-100.00,SSE,153,3.0,7.0,-999,-99.99,,,-99.99,,2013-04-16 09:33:00,
2013-04-16 03:43:00,18.0,-99.9,-100.00,SSE,153,3.0,7.0,-999,-99.99,,,-99.99,,2013-04-16 09:43:00,
2013-04-16 03:53:00,18.0,-99.9,-100.00,SSE,153,3.0,7.0,-999,-99.99,,,-99.99,,2013-04-16 09:53:00,
2013-04-16 04:00:00,18.0,-99.9,-100.00,SSE,154,2.0,10.0,-999,-99.99,,,-99.99,,2013-04-16 10:00:00,
2013-04-16 04:33:00,18.0,-99.9,-100.00,SSE,154,2.0,10.0,-999,-99.99,,,-99.99,,2013-04-16 10:33:00,
2013-04-16 04:43:00,18.0,-99.9,-100.00,SSE,154,2.0,10.0,-999,-99.99,,,-99.99,,2013-04-16 10:43:00,
2013-04-16 04:53:00,18.0,-99.9,-100.00,SSE,154,2.0,10.0,-999,-99.99,,,-99.99,,2013-04-16 10:53:00,
2013-04-16 05:00:00,18.0,-99.9,-100.00,ENE,60,2.0,5.0,-999,-99.99,,,-99.99,,2013-04-16 11:00:00,
2013-04-16 05:32:00,18.0,-99.9,-100.00,ENE,60,2.0,5.0,-999,-99.99,,,-99.99,,2013-04-16 11:32:00,
2013-04-16 05:42:00,18.0,-99.9,-100.00,ENE,60,2.0,5.0,-999,-99.99,,,-99.99,,2013-04-16 11:42:00,
2013-04-16 05:53:00,18.0,-99.9,-100.00,ENE,60,2.0,5.0,-999,-99.99,,,-99.99,,2013-04-16 11:53:00,
2013-04-16 06:00:00,18.0,-99.9,-100.00,NNE,16,1.0,5.0,-999,-99.99,,,-99.99,,2013-04-16 12:00:00,
2013-04-16 06:32:00,18.0,-99.9,-100.00,NNE,16,1.0,5.0,-999,-99.99,,,-99.99,,2013-04-16 12:32:00,
2013-04-16 06:42:00,18.0,-99.9,-100.00,NNE,16,1.0,5.0,-999,-99.99,,,-99.99,,2013-04-16 12:42:00,
2013-04-16 06:52:00,18.0,-99.9,-100.00,NNE,16,1.0,5.0,-999,-99.99,,,-99.99,,2013-04-16 12:52:00,
2013-04-16 07:00:00,18.0,-99.9,-100.00,North,355,5.0,13.0,-999,-99.99,,,-99.99,,2013-04-16 13:00:00,
2013-04-16 07:32:00,18.0,-99.9,-100.00,North,355,5.0,13.0,-999,-99.99,,,-99.99,,2013-04-16 13:32:00,
2013-04-16 07:42:00,18.0,-99.9,-100.00,North,355,5.0,13.0,-999,-99.99,,,-99.99,,2013-04-16 13:42:00,
2013-04-16 07:52:00,18.0,-99.9,-100.00,North,355,5.0,13.0,-999,-99.99,,,-99.99,,2013-04-16 13:52:00,
2013-04-16 08:00:00,17.0,-99.9,-100.00,North,353,7.0,15.0,-999,-99.99,,,-99.99,,2013-04-16 14:00:00,
2013-04-16 08:32:00,17.0,-99.9,-100.00,North,353,7.0,15.0,-999,-99.99,,,-99.99,,2013-04-16 14:32:00,
2013-04-16 08:42:00,17.0,-99.9,-100.00,North,353,7.0,15.0,-999,-99.99,,,-99.99,,2013-04-16 14:42:00,
2013-04-16 08:52:00,17.0,-99.9,-100.00,North,353,7.0,15.0,-999,-99.99,,,-99.99,,2013-04-16 14:52:00,
2013-04-16 09:00:00,16.0,-99.9,-100.00,North,353,4.0,13.0,-999,-99.99,,,-99.99,,2013-04-16 15:00:00,
2013-04-16 09:33:00,16.0,-99.9,-100.00,North,353,4.0,13.0,-999,-99.99,,,-99.99,,2013-04-16 15:33:00,
2013-04-16 09:43:00,16.0,-99.9,-100.00,North,353,4.0,13.0,-999,-99.99,,,-99.99,,2013-04-16 15:43:00,
2013-04-16 09:53:00,16.0,-99.9,-100.00,North,353,4.0,13.0,-999,-99.99,,,-99.99,,2013-04-16 15:53:00,
2013-04-16 10:00:00,16.0,-99.9,-100.00,North,357,4.0,13.0,-999,-99.99,,,-99.99,,2013-04-16 16:00:00,
2013-04-16 10:33:00,16.0,-99.9,-100.00,North,357,4.0,13.0,-999,-99.99,,,-99.99,,2013-04-16 16:33:00,
2013-04-16 10:42:00,16.0,-99.9,-100.00,North,357,4.0,13.0,-999,-99.99,,,-99.99,,2013-04-16 16:42:00,
2013-04-16 10:53:00,16.0,-99.9,-100.00,North,357,4.0,13.0,-999,-99.99,,,-99.99,,2013-04-16 16:53:00,
2013-04-16 11:00:00,16.0,-99.9,-100.00,North,9,5.0,15.0,-999,-99.99,,,-99.99,,2013-04-16 17:00:00,
2013-04-16 11:33:00,16.0,-99.9,-100.00,North,9,5.0,15.0,-999,-99.99,,,-99.99,,2013-04-16 17:33:00,
2013-04-16 11:44:00,16.0,-99.9,-100.00,North,9,5.0,15.0,-999,-99.99,,,-99.99,,2013-04-16 17:44:00,
2013-04-16 11:53:00,16.0,-99.9,-100.00,North,9,5.0,15.0,-999,-99.99,,,-99.99,,2013-04-16 17:53:00,
2013-04-16 12:00:00,16.0,-99.9,-100.00,NNE,20,4.0,11.0,-999,-99.99,,,-99.99,,2013-04-16 18:00:00,
2013-04-16 12:32:00,16.0,-99.9,-100.00,NNE,20,4.0,11.0,-999,-99.99,,,-99.99,,2013-04-16 18:32:00,
2013-04-16 12:43:00,16.0,-99.9,-100.00,NNE,20,4.0,11.0,-999,-99.99,,,-99.99,,2013-04-16 18:43:00,
2013-04-16 12:52:00,16.0,-99.9,-100.00,NNE,20,4.0,11.0,-999,-99.99,,,-99.99,,2013-04-16 18:52:00,
2013-04-16 13:00:00,17.0,-99.9,-100.00,NE,35,4.0,12.0,-999,-99.99,,,-99.99,,2013-04-16 19:00:00,
2013-04-16 13:32:00,17.0,-99.9,-100.00,NE,35,4.0,12.0,-999,-99.99,,,-99.99,,2013-04-16 19:32:00,
2013-04-16 13:43:00,17.0,-99.9,-100.00,NE,35,4.0,12.0,-999,-99.99,,,-99.99,,2013-04-16 19:43:00,
2013-04-16 13:52:00,17.0,-99.9,-100.00,NE,35,4.0,12.0,-999,-99.99,,,-99.99,,2013-04-16 19:52:00,
2013-04-16 14:00:00,19.0,-99.9,-100.00,NNE,23,3.0,9.0,-999,-99.99,,,-99.99,,2013-04-16 20:00:00,
2013-04-16 14:32:00,19.0,-99.9,-100.00,NNE,23,3.0,9.0,-999,-99.99,,,-99.99,,2013-04-16 20:32:00,
2013-04-16 14:42:00,19.0,-99.9,-100.00,NNE,23,3.0,9.0,-999,-99.99,,,-99.99,,2013-04-16 20:42:00,
2013-04-16 14:52:00,19.0,-99.9,-100.00,NNE,23,3.0,9.0,-999,-99.99,,,-99.99,,2013-04-16 20:52:00,
2013-04-16 15:00:00,19.0,-99.9,-100.00,NE,47,3.0,9.0,-999,-99.99,,,-99.99,,2013-04-16 21:00:00,
2013-04-16 15:33:00,19.0,-99.9,-100.00,NE,47,3.0,9.0,-999,-99.99,,,-99.99,,2013-04-16 21:33:00,
2013-04-16 15:43:00,19.0,-99.9,-100.00,NE,47,3.0,9.0,-999,-99.99,,,-99.99,,2013-04-16 21:43:00,
2013-04-16 15:53:00,19.0,-99.9,-100.00,NE,47,3.0,9.0,-999,-99.99,,,-99.99,,2013-04-16 21:53:00,
2013-04-16 16:00:00,18.0,-99.9,-100.00,NNE,30,4.0,9.0,-999,-99.99,,,-99.99,,2013-04-16 22:00:00,
2013-04-16 16:33:00,18.0,-99.9,-100.00,NNE,30,4.0,9.0,-999,-99.99,,,-99.99,,2013-04-16 22:33:00,
2013-04-16 16:43:00,18.0,-99.9,-100.00,NNE,30,4.0,9.0,-999,-99.99,,,-99.99,,2013-04-16 22:43:00,
2013-04-16 16:52:00,18.0,-99.9,-100.00,NNE,30,4.0,9.0,-999,-99.99,,,-99.99,,2013-04-16 22:52:00,
2013-04-16 17:00:00,18.0,-99.9,-100.00,NE,39,4.0,10.0,-999,-99.99,,,-99.99,,2013-04-16 23:00:00,
2013-04-16 17:32:00,18.0,-99.9,-100.00,NE,39,4.0,10.0,-999,-99.99,,,-99.99,,2013-04-16 23:32:00,
2013-04-16 17:43:00,18.0,-99.9,-100.00,NE,39,4.0,10.0,-999,-99.99,,,-99.99,,2013-04-16 23:43:00,
2013-04-16 17:52:00,18.0,-99.9,-100.00,NE,39,4.0,10.0,-999,-99.99,,,-99.99,,2013-04-16 23:52:00,
2013-04-16 18:00:00,18.0,-99.9,-100.00,NE,38,3.0,10.0,-999,-99.99,,,-99.99,,2013-04-17 00:00:00,
2013-04-16 18:32:00,18.0,-99.9,-100.00,NE,38,3.0,10.0,-999,-99.99,,,-99.99,,2013-04-17 00:32:00,
2013-04-16 18:42:00,18.0,-99.9,-100.00,NE,38,3.0,10.0,-999,-99.99,,,-99.99,,2013-04-17 00:42:00,
2013-04-16 18:52:00,18.0,-99.9,-100.00,NE,38,3.0,10.0,-999,-99.99,,,-99.99,,2013-04-17 00:52:00,
2013-04-16 19:00:00,18.0,-99.9,-100.00,ENE,66,2.0,6.0,-999,-99.99,,,-99.99,,2013-04-17 01:00:00,
2013-04-16 19:32:00,18.0,-99.9,-100.00,ENE,66,2.0,6.0,-999,-99.99,,,-99.99,,2013-04-17 01:32:00,
2013-04-16 19:42:00,18.0,-99.9,-100.00,ENE,66,2.0,6.0,-999,-99.99,,,-99.99,,2013-04-17 01:42:00,
2013-04-16 19:52:00,18.0,-99.9,-100.00,ENE,66,2.0,6.0,-999,-99.99,,,-99.99,,2013-04-17 01:52:00,
2013-04-16 20:00:00,17.0,-99.9,-100.00,NNE,31,1.0,6.0,-999,-99.99,,,-99.99,,2013-04-17 02:00:00,
2013-04-16 20:32:00,17.0,-99.9,-100.00,NNE,31,1.0,6.0,-999,-99.99,,,-99.99,,2013-04-17 02:32:00,
2013-04-16 20:42:00,17.0,-99.9,-100.00,NNE,31,1.0,6.0,-999,-99.99,,,-99.99,,2013-04-17 02:42:00,
2013-04-16 20:53:00,17.0,-99.9,-100.00,NNE,31,1.0,6.0,-999,-99.99,,,-99.99,,2013-04-17 02:53:00,
2013-04-16 21:00:00,14.0,-99.9,-100.00,North,354,1.0,5.0,-999,-99.99,,,-99.99,,2013-04-17 03:00:00,
2013-04-16 21:33:00,14.0,-99.9,-100.00,North,354,1.0,5.0,-999,-99.99,,,-99.99,,2013-04-17 03:33:00,
2013-04-16 21:43:00,14.0,-99.9,-100.00,North,354,1.0,5.0,-999,-99.99,,,-99.99,,2013-04-17 03:43:00,
2013-04-16 21:53:00,14.0,-99.9,-100.00,North,354,1.0,5.0,-999,-99.99,,,-99.99,,2013-04-17 03:53:00,
2013-04-16 22:00:00,13.0,-99.9,-100.00,North,0,2.0,8.0,-999,-99.99,,,-99.99,,2013-04-17 04:00:00,
2013-04-16 22:33:00,13.0,-99.9,-100.00,North,0,2.0,8.0,-999,-99.99,,,-99.99,,2013-04-17 04:33:00,
2013-04-16 22:43:00,13.0,-99.9,-100.00,North,0,2.0,8.0,-999,-99.99,,,-99.99,,2013-04-17 04:43:00,
2013-04-16 22:53:00,13.0,-99.9,-100.00,North,0,2.0,8.0,-999,-99.99,,,-99.99,,2013-04-17 04:53:00,
2013-04-16 23:00:00,12.0,-99.9,-100.00,North,9,6.0,17.0,-999,-99.99,,,-99.99,,2013-04-17 05:00:00,
2013-04-16 23:32:00,12.0,-99.9,-100.00,North,9,6.0,17.0,-999,-99.99,,,-99.99,,2013-04-17 05:32:00,
2013-04-16 23:43:00,12.0,-99.9,-100.00,North,9,6.0,17.0,-999,-99.99,,,-99.99,,2013-04-17 05:43:00,
2013-04-16 23:52:00,12.0,-99.9,-100.00,North,9,6.0,17.0,-999,-99.99,,,-99.99,,2013-04-17 05:52:00,